KLM52Q LPPR-EHAM

Flight info

Callsign KLM52Q
Flight time 2h 4m
Altitude 38000
Route TURON P600 ASDEB DCT LOTEE DCT AZFIC DCT ERIGA DCT GODIX DCT PODEM UN873 BAZOS DCT LUMIL DCT BELOB UY873 DENUT
Aircraft B737/M-SDE2E3FGHIRWXY/LB1

Departure

Time 2026-05-07 10:38
Airport Francisco de Sá Carneiro Airport (LPPR)

Arrival

Time 2026-05-07 12:42
Airport Amsterdam Airport Schiphol (EHAM)
Time Latitude Longitude Altitude Speed Heading
2026-05-07 10:02 41.23641 -8.67235 244 ft 0 kts 79°
2026-05-07 10:26 41.23641 -8.67237 244 ft 2 kts 78°
2026-05-07 10:26 41.23634 -8.67270 244 ft 4 kts 65°
2026-05-07 10:26 41.23620 -8.67300 242 ft 4 kts 49°
2026-05-07 10:26 41.23600 -8.67325 241 ft 4 kts 35°
2026-05-07 10:27 41.23580 -8.67343 240 ft 2 kts 31°
2026-05-07 10:27 41.23579 -8.67343 240 ft 0 kts 32°
2026-05-07 10:32 41.23589 -8.67336 240 ft 6 kts 26°
2026-05-07 10:32 41.23652 -8.67337 241 ft 12 kts 349°
2026-05-07 10:33 41.23726 -8.67403 239 ft 15 kts 306°
2026-05-07 10:33 41.23814 -8.67473 238 ft 17 kts 349°
2026-05-07 10:33 41.23948 -8.67508 237 ft 22 kts 349°
2026-05-07 10:33 41.24104 -8.67549 237 ft 23 kts 348°
2026-05-07 10:34 41.24234 -8.67598 237 ft 16 kts 322°
2026-05-07 10:34 41.24327 -8.67713 228 ft 21 kts 345°
2026-05-07 10:34 41.24485 -8.67755 220 ft 25 kts 349°
2026-05-07 10:34 41.24660 -8.67802 210 ft 27 kts 348°
2026-05-07 10:35 41.24835 -8.67879 207 ft 25 kts 329°
2026-05-07 10:35 41.24999 -8.67944 192 ft 26 kts 349°
2026-05-07 10:35 41.25179 -8.67992 194 ft 28 kts 348°
2026-05-07 10:35 41.25381 -8.68046 177 ft 30 kts 349°
2026-05-07 10:36 41.25550 -8.68089 172 ft 21 kts 349°
2026-05-07 10:36 41.25671 -8.68148 169 ft 17 kts 303°
2026-05-07 10:36 41.25662 -8.68295 170 ft 14 kts 258°
2026-05-07 10:36 41.25628 -8.68341 171 ft 7 kts 173°
2026-05-07 10:37 41.25561 -8.68323 172 ft 25 kts 168°
2026-05-07 10:37 41.25145 -8.68214 197 ft 95 kts 168°
2026-05-07 10:37 41.24310 -8.67994 211 ft 148 kts 168°
2026-05-07 10:37 41.23159 -8.67707 409 ft 179 kts 173°
2026-05-07 10:38 41.21940 -8.67421 1220 ft 176 kts 173°
2026-05-07 10:38 41.20793 -8.67120 2145 ft 169 kts 170°
2026-05-07 10:38 41.19553 -8.66778 2449 ft 196 kts 169°
2026-05-07 10:38 41.18138 -8.66380 2695 ft 220 kts 168°
2026-05-07 10:39 41.16756 -8.65409 3062 ft 235 kts 131°
2026-05-07 10:39 41.16154 -8.63418 3782 ft 237 kts 96°
2026-05-07 10:39 41.16445 -8.61242 4377 ft 246 kts 66°
2026-05-07 10:39 41.17519 -8.59456 5030 ft 253 kts 37°
2026-05-07 10:40 41.19163 -8.58592 5686 ft 258 kts
2026-05-07 10:40 41.20969 -8.58449 6414 ft 264 kts
2026-05-07 10:40 41.22792 -8.58431 7284 ft 263 kts
2026-05-07 10:40 41.24669 -8.58428 8080 ft 269 kts
2026-05-07 10:41 41.26592 -8.58420 8700 ft 285 kts
2026-05-07 10:41 41.28605 -8.58402 9420 ft 294 kts
2026-05-07 10:41 41.30654 -8.58372 10284 ft 297 kts
2026-05-07 10:41 41.32727 -8.58333 11126 ft 299 kts
2026-05-07 10:42 41.34816 -8.58288 11994 ft 302 kts
2026-05-07 10:42 41.36929 -8.58238 12775 ft 310 kts
2026-05-07 10:42 41.39170 -8.58182 13030 ft 335 kts
2026-05-07 10:42 41.41575 -8.58119 13310 ft 356 kts
2026-05-07 10:43 41.44087 -8.58052 13992 ft 364 kts
2026-05-07 10:43 41.46613 -8.57984 14902 ft 364 kts
2026-05-07 10:43 41.49159 -8.57914 15682 ft 369 kts
2026-05-07 10:43 41.51741 -8.57843 16466 ft 373 kts
2026-05-07 10:44 41.54342 -8.57770 17331 ft 375 kts
2026-05-07 10:44 41.56967 -8.57695 18124 ft 380 kts 360°
2026-05-07 10:44 41.59622 -8.57621 18834 ft 383 kts 360°
2026-05-07 10:44 41.62294 -8.57548 19575 ft 385 kts 360°
2026-05-07 10:45 41.64970 -8.57476 20308 ft 387 kts 359°
2026-05-07 10:45 41.66767 -8.57426 20765 ft 389 kts
2026-05-07 10:45 41.70419 -8.57324 21646 ft 395 kts 359°
2026-05-07 10:45 41.73139 -8.57247 22331 ft 398 kts 360°
2026-05-07 10:46 41.75916 -8.57169 22996 ft 401 kts
2026-05-07 10:46 41.78719 -8.57090 23628 ft 404 kts
2026-05-07 10:46 41.80625 -8.57036 24003 ft 406 kts 360°
2026-05-07 10:46 41.83454 -8.56957 24593 ft 407 kts 359°
2026-05-07 10:47 41.86285 -8.56877 25197 ft 408 kts 359°
2026-05-07 10:47 41.89128 -8.56797 25770 ft 409 kts 359°
2026-05-07 10:47 41.91976 -8.56744 26311 ft 411 kts 358°
2026-05-07 10:47 41.94838 -8.56708 26848 ft 412 kts 359°
2026-05-07 10:48 41.97714 -8.56637 27379 ft 414 kts 359°
2026-05-07 10:48 42.00600 -8.56539 27904 ft 416 kts 359°
2026-05-07 10:48 42.03493 -8.56345 28393 ft 419 kts
2026-05-07 10:48 42.06354 -8.55455 28854 ft 426 kts 15°
2026-05-07 10:49 42.09099 -8.53914 29331 ft 432 kts 24°
2026-05-07 10:49 42.11648 -8.51714 29784 ft 438 kts 31°
2026-05-07 10:49 42.14110 -8.49272 30157 ft 441 kts 32°
2026-05-07 10:49 42.16560 -8.46767 30455 ft 444 kts 33°
2026-05-07 10:50 42.19026 -8.44232 30752 ft 447 kts 33°
2026-05-07 10:50 42.21506 -8.41690 31065 ft 448 kts 33°
2026-05-07 10:50 42.23992 -8.39156 31508 ft 447 kts 33°
2026-05-07 10:50 42.26472 -8.36643 31969 ft 445 kts 32°
2026-05-07 10:51 42.28946 -8.34144 32418 ft 443 kts 32°
2026-05-07 10:51 42.31416 -8.31656 32798 ft 443 kts 33°
2026-05-07 10:51 42.33890 -8.29166 33130 ft 443 kts 32°
2026-05-07 10:51 42.36360 -8.26678 33530 ft 442 kts 32°
2026-05-07 10:52 42.38824 -8.24194 33916 ft 441 kts 32°
2026-05-07 10:52 42.41250 -8.21746 34177 ft 442 kts 32°
2026-05-07 10:52 42.43721 -8.19251 34360 ft 444 kts 33°
2026-05-07 10:52 42.46202 -8.16743 34578 ft 446 kts 33°
2026-05-07 10:53 42.48683 -8.14231 34827 ft 446 kts 33°
2026-05-07 10:53 42.51171 -8.11710 35055 ft 447 kts 33°
2026-05-07 10:53 42.53669 -8.09175 35264 ft 449 kts 33°
2026-05-07 10:53 42.56170 -8.06634 35481 ft 450 kts 33°
2026-05-07 10:54 42.58673 -8.04089 35708 ft 451 kts 33°
2026-05-07 10:54 42.61185 -8.01532 35909 ft 452 kts 33°
2026-05-07 10:54 42.63700 -7.98969 36112 ft 453 kts 33°
2026-05-07 10:54 42.66219 -7.96399 36327 ft 454 kts 33°
2026-05-07 10:55 42.68745 -7.93820 36529 ft 455 kts 33°
2026-05-07 10:55 42.71276 -7.91233 36723 ft 456 kts 33°
2026-05-07 10:55 42.73813 -7.88637 36919 ft 457 kts 33°
2026-05-07 10:55 42.76351 -7.86037 37126 ft 458 kts 34°
2026-05-07 10:56 42.78899 -7.83425 37288 ft 459 kts 34°
2026-05-07 10:56 42.81450 -7.80806 37482 ft 460 kts 34°
2026-05-07 10:56 42.84006 -7.78180 37685 ft 460 kts 34°
2026-05-07 10:56 42.86565 -7.75547 37862 ft 462 kts 34°
2026-05-07 10:57 42.91716 -7.70241 37884 ft 464 kts 34°
2026-05-07 10:57 42.96847 -7.64941 37883 ft 461 kts 34°
2026-05-07 10:58 43.01940 -7.59670 37892 ft 458 kts 34°
2026-05-07 10:58 43.07007 -7.54416 37892 ft 456 kts 34°
2026-05-07 10:59 43.12059 -7.49166 37895 ft 456 kts 34°
2026-05-07 10:59 43.17123 -7.43895 37904 ft 458 kts 34°
2026-05-07 11:00 43.22211 -7.38590 37907 ft 461 kts 35°
2026-05-07 11:00 43.27327 -7.33244 37898 ft 463 kts 35°
2026-05-07 11:01 43.32425 -7.27896 37907 ft 465 kts 35°
2026-05-07 11:01 43.37577 -7.22481 37909 ft 467 kts 35°
2026-05-07 11:02 43.42741 -7.17044 37921 ft 468 kts 36°
2026-05-07 11:02 43.47909 -7.11594 37916 ft 468 kts 36°
2026-05-07 11:03 43.53080 -7.06125 37907 ft 468 kts 36°
2026-05-07 11:03 43.58240 -7.00656 37919 ft 467 kts 36°
2026-05-07 11:04 43.63386 -6.95190 37936 ft 466 kts 36°
2026-05-07 11:04 43.68520 -6.89725 37921 ft 466 kts 36°
2026-05-07 11:05 43.73640 -6.84263 37921 ft 464 kts 36°
2026-05-07 11:05 43.78748 -6.78808 37922 ft 464 kts 36°
2026-05-07 11:06 43.83847 -6.73345 37942 ft 463 kts 36°
2026-05-07 11:06 43.88941 -6.67871 37927 ft 464 kts 36°
2026-05-07 11:07 43.94035 -6.62386 37936 ft 463 kts 36°
2026-05-07 11:07 43.99127 -6.56893 37934 ft 464 kts 36°
2026-05-07 11:08 44.04216 -6.51391 37953 ft 464 kts 36°
2026-05-07 11:08 44.09310 -6.45873 37937 ft 464 kts 37°
2026-05-07 11:09 44.14412 -6.40336 37937 ft 466 kts 36°
2026-05-07 11:09 44.19524 -6.34772 37941 ft 467 kts 36°
2026-05-07 11:10 44.24653 -6.29181 37956 ft 468 kts 37°
2026-05-07 11:10 44.29789 -6.23565 37955 ft 470 kts 37°
2026-05-07 11:11 44.34935 -6.17918 37951 ft 471 kts 37°
2026-05-07 11:11 44.40084 -6.12260 37961 ft 471 kts 37°
2026-05-07 11:12 44.45238 -6.06587 37950 ft 471 kts 37°
2026-05-07 11:12 44.50351 -6.00946 37956 ft 471 kts 37°
2026-05-07 11:13 44.55491 -5.95258 37963 ft 470 kts 37°
2026-05-07 11:13 44.60624 -5.89566 37960 ft 470 kts 37°
2026-05-07 11:14 44.65746 -5.83862 37961 ft 470 kts 39°
2026-05-07 11:14 44.70503 -5.77556 37970 ft 470 kts 44°
2026-05-07 11:15 44.75064 -5.70957 37971 ft 470 kts 45°
2026-05-07 11:15 44.79628 -5.64358 37972 ft 471 kts 45°
2026-05-07 11:16 44.84223 -5.57787 37974 ft 471 kts 45°
2026-05-07 11:16 44.88832 -5.51226 37972 ft 471 kts 45°
2026-05-07 11:17 44.93445 -5.44652 37978 ft 472 kts 45°
2026-05-07 11:17 44.98060 -5.38057 37976 ft 472 kts 45°
2026-05-07 11:18 45.02674 -5.31446 37984 ft 473 kts 45°
2026-05-07 11:18 45.07289 -5.24820 37986 ft 473 kts 45°
2026-05-07 11:19 45.11899 -5.18177 37992 ft 473 kts 45°
2026-05-07 11:19 45.16509 -5.11518 37989 ft 473 kts 45°
2026-05-07 11:20 45.21112 -5.04855 37991 ft 473 kts 45°
2026-05-07 11:20 45.25708 -4.98186 37989 ft 472 kts 45°
2026-05-07 11:21 45.30296 -4.91513 38001 ft 472 kts 45°
2026-05-07 11:21 45.34879 -4.84831 37993 ft 472 kts 46°
2026-05-07 11:22 45.39454 -4.78143 37997 ft 471 kts 46°
2026-05-07 11:22 45.44021 -4.71450 37997 ft 471 kts 46°
2026-05-07 11:23 45.48553 -4.64794 37998 ft 471 kts 46°
2026-05-07 11:23 45.53106 -4.58089 38004 ft 471 kts 46°
2026-05-07 11:24 45.57656 -4.51371 38003 ft 471 kts 46°
2026-05-07 11:24 45.62201 -4.44646 38005 ft 471 kts 46°
2026-05-07 11:25 45.66742 -4.37908 38005 ft 471 kts 46°
2026-05-07 11:25 45.71281 -4.31158 38015 ft 471 kts 46°
2026-05-07 11:26 45.75819 -4.24391 38008 ft 471 kts 46°
2026-05-07 11:26 45.80356 -4.17609 38011 ft 471 kts 46°
2026-05-07 11:27 45.84890 -4.10814 38011 ft 471 kts 46°
2026-05-07 11:27 45.89421 -4.04007 38013 ft 472 kts 46°
2026-05-07 11:28 45.93949 -3.97187 38015 ft 472 kts 46°
2026-05-07 11:28 45.98475 -3.90353 38009 ft 472 kts 46°
2026-05-07 11:29 46.02995 -3.83511 38019 ft 472 kts 46°
2026-05-07 11:29 46.07514 -3.76653 38019 ft 472 kts 47°
2026-05-07 11:30 46.12028 -3.69785 38019 ft 472 kts 47°
2026-05-07 11:30 46.16510 -3.62947 38019 ft 472 kts 47°
2026-05-07 11:31 46.21047 -3.56009 38013 ft 472 kts 47°
2026-05-07 11:31 46.25551 -3.49102 38020 ft 472 kts 47°
2026-05-07 11:32 46.32301 -3.38721 38033 ft 472 kts 47°
2026-05-07 11:33 46.36764 -3.31833 38022 ft 472 kts 47°
2026-05-07 11:33 46.41255 -3.24886 38021 ft 472 kts 47°
2026-05-07 11:34 46.45742 -3.17926 38018 ft 472 kts 47°
2026-05-07 11:34 46.50218 -3.10965 38025 ft 472 kts 47°
2026-05-07 11:35 46.53966 -3.05122 38035 ft 472 kts 47°
2026-05-07 11:35 46.58436 -2.98139 38025 ft 472 kts 47°
2026-05-07 11:36 46.62903 -2.91141 38024 ft 472 kts 47°
2026-05-07 11:36 46.67361 -2.84138 38025 ft 472 kts 47°
2026-05-07 11:37 46.71815 -2.77124 38026 ft 471 kts 47°
2026-05-07 11:37 46.76263 -2.70101 38024 ft 472 kts 47°
2026-05-07 11:38 46.80711 -2.63059 38023 ft 472 kts 47°
2026-05-07 11:38 46.85154 -2.56007 38022 ft 472 kts 47°
2026-05-07 11:39 46.89594 -2.48942 38022 ft 472 kts 47°
2026-05-07 11:39 46.94031 -2.41862 38011 ft 472 kts 47°
2026-05-07 11:40 46.98464 -2.34769 38021 ft 472 kts 47°
2026-05-07 11:40 47.02896 -2.27660 38014 ft 472 kts 47°
2026-05-07 11:41 47.07294 -2.20587 38007 ft 472 kts 47°
2026-05-07 11:41 47.11747 -2.13406 38018 ft 472 kts 47°
2026-05-07 11:42 47.16137 -2.06308 38029 ft 473 kts 47°
2026-05-07 11:42 47.20554 -1.99146 38017 ft 473 kts 47°
2026-05-07 11:43 47.24968 -1.91972 38014 ft 473 kts 47°
2026-05-07 11:43 47.29376 -1.84787 38017 ft 473 kts 48°
2026-05-07 11:44 47.33776 -1.77595 38014 ft 473 kts 48°
2026-05-07 11:44 47.38178 -1.70382 38025 ft 473 kts 48°
2026-05-07 11:45 47.42569 -1.63166 38009 ft 472 kts 48°
2026-05-07 11:45 47.46954 -1.55943 38019 ft 472 kts 48°
2026-05-07 11:46 47.51334 -1.48706 38015 ft 472 kts 48°
2026-05-07 11:46 47.55705 -1.41465 38024 ft 472 kts 48°
2026-05-07 11:47 47.60070 -1.34215 38034 ft 472 kts 48°
2026-05-07 11:47 47.64432 -1.26949 38030 ft 472 kts 48°
2026-05-07 11:48 47.68790 -1.19672 38028 ft 471 kts 48°
2026-05-07 11:48 47.73139 -1.12389 38038 ft 471 kts 48°
2026-05-07 11:49 47.77484 -1.05092 38035 ft 472 kts 48°
2026-05-07 11:49 47.81828 -0.97777 38058 ft 472 kts 48°
2026-05-07 11:50 47.86166 -0.90453 38047 ft 472 kts 48°
2026-05-07 11:50 47.90497 -0.83119 38037 ft 471 kts 48°
2026-05-07 11:51 47.94820 -0.75780 38050 ft 471 kts 48°
2026-05-07 11:51 47.99138 -0.68428 38047 ft 471 kts 48°
2026-05-07 11:52 48.03450 -0.61068 38056 ft 471 kts 48°
2026-05-07 11:52 48.07758 -0.53691 38049 ft 471 kts 49°
2026-05-07 11:53 48.12030 -0.46359 38054 ft 471 kts 49°
2026-05-07 11:53 48.16325 -0.38964 38054 ft 470 kts 49°
2026-05-07 11:54 48.20614 -0.31560 38064 ft 470 kts 49°
2026-05-07 11:54 48.24897 -0.24145 38067 ft 470 kts 49°
2026-05-07 11:55 48.29174 -0.16720 38057 ft 470 kts 49°
2026-05-07 11:55 48.33441 -0.09292 38063 ft 470 kts 49°
2026-05-07 11:56 48.37710 -0.01852 38055 ft 470 kts 49°
2026-05-07 11:56 48.41998 0.05565 38056 ft 469 kts 49°
2026-05-07 11:57 48.46285 0.12978 38073 ft 469 kts 49°
2026-05-07 11:57 48.50562 0.20404 38060 ft 469 kts 49°
2026-05-07 11:58 48.54831 0.27845 38064 ft 469 kts 49°
2026-05-07 11:58 48.59091 0.35294 38069 ft 469 kts 49°
2026-05-07 11:59 48.63349 0.42759 38061 ft 469 kts 49°
2026-05-07 11:59 48.67609 0.50250 38078 ft 470 kts 49°
2026-05-07 12:00 48.71877 0.57775 38054 ft 472 kts 49°
2026-05-07 12:00 48.76143 0.65318 38061 ft 470 kts 49°
2026-05-07 12:01 48.80384 0.72838 38063 ft 468 kts 49°
2026-05-07 12:01 48.84603 0.80341 38061 ft 467 kts 49°
2026-05-07 12:02 48.88808 0.87840 38062 ft 466 kts 49°
2026-05-07 12:02 48.92996 0.95330 38073 ft 465 kts 49°
2026-05-07 12:03 48.97180 1.02834 38074 ft 465 kts 49°
2026-05-07 12:03 49.01329 1.10297 38076 ft 465 kts 49°
2026-05-07 12:04 49.05506 1.17830 38078 ft 466 kts 49°
2026-05-07 12:04 49.09685 1.25390 38094 ft 467 kts 49°
2026-05-07 12:05 49.13884 1.33008 38078 ft 470 kts 49°
2026-05-07 12:05 49.18103 1.40686 38062 ft 472 kts 50°
2026-05-07 12:06 49.22315 1.48370 38062 ft 470 kts 50°
2026-05-07 12:06 49.26524 1.56001 38060 ft 468 kts 46°
2026-05-07 12:07 49.31164 1.62946 38076 ft 465 kts 42°
2026-05-07 12:07 49.35911 1.69667 38063 ft 464 kts 42°
2026-05-07 12:08 49.40602 1.76456 38061 ft 463 kts 43°
2026-05-07 12:08 49.45255 1.83293 38063 ft 463 kts 43°
2026-05-07 12:09 49.49902 1.90139 38076 ft 463 kts 43°
2026-05-07 12:09 49.54809 1.96547 38086 ft 463 kts 36°
2026-05-07 12:10 49.60040 2.02348 38072 ft 464 kts 34°
2026-05-07 12:10 49.65295 2.08140 38074 ft 465 kts 35°
2026-05-07 12:11 49.70528 2.14025 38064 ft 466 kts 35°
2026-05-07 12:11 49.75751 2.19970 38073 ft 467 kts 36°
2026-05-07 12:12 49.80974 2.25943 38064 ft 467 kts 36°
2026-05-07 12:12 49.86197 2.31930 38065 ft 467 kts 36°
2026-05-07 12:13 49.91413 2.37921 38064 ft 467 kts 36°
2026-05-07 12:13 49.96627 2.43926 38076 ft 466 kts 36°
2026-05-07 12:14 50.01833 2.49938 38076 ft 466 kts 36°
2026-05-07 12:14 50.07028 2.55955 38073 ft 465 kts 36°
2026-05-07 12:15 50.12216 2.61980 38089 ft 465 kts 36°
2026-05-07 12:15 50.17419 2.68039 38080 ft 467 kts 36°
2026-05-07 12:16 50.22623 2.74117 38072 ft 468 kts 36°
2026-05-07 12:16 50.27836 2.80222 38050 ft 468 kts 36°
2026-05-07 12:17 50.33029 2.86321 38059 ft 465 kts 36°
2026-05-07 12:17 50.38193 2.92402 38070 ft 463 kts 36°
2026-05-07 12:18 50.43411 2.98280 38064 ft 461 kts 29°
2026-05-07 12:18 50.49085 3.02910 38072 ft 459 kts 25°
2026-05-07 12:19 50.53890 3.06441 38075 ft 459 kts 24°
2026-05-07 12:19 50.60607 3.11378 38078 ft 459 kts 25°
2026-05-07 12:20 50.66280 3.16040 38068 ft 460 kts 28°
2026-05-07 12:20 50.69100 3.18494 37610 ft 468 kts 28°
2026-05-07 12:20 50.71025 3.20177 37236 ft 467 kts 28°
2026-05-07 12:20 50.73860 3.22651 36608 ft 465 kts 28°
2026-05-07 12:21 50.76690 3.25104 35955 ft 463 kts 27°
2026-05-07 12:21 50.79522 3.27547 35226 ft 464 kts 27°
2026-05-07 12:21 50.82362 3.29988 34485 ft 465 kts 27°
2026-05-07 12:21 50.85181 3.32410 33629 ft 467 kts 27°
2026-05-07 12:22 50.88035 3.34862 32753 ft 467 kts 27°
2026-05-07 12:22 50.90893 3.37322 31917 ft 467 kts 27°
2026-05-07 12:22 50.93744 3.39780 31046 ft 467 kts 27°
2026-05-07 12:22 50.96585 3.42234 30423 ft 462 kts 27°
2026-05-07 12:23 50.99368 3.44643 29749 ft 457 kts 27°
2026-05-07 12:23 51.02170 3.47071 29067 ft 451 kts 27°
2026-05-07 12:23 51.04904 3.49443 28430 ft 445 kts 27°
2026-05-07 12:23 51.07599 3.51785 27817 ft 439 kts 27°
2026-05-07 12:24 51.10258 3.54098 27203 ft 433 kts 27°
2026-05-07 12:24 51.12887 3.56388 26579 ft 428 kts 27°
2026-05-07 12:24 51.15486 3.58655 25967 ft 424 kts 27°
2026-05-07 12:24 51.18027 3.60873 25379 ft 420 kts 28°
2026-05-07 12:25 51.20577 3.63102 24777 ft 416 kts 28°
2026-05-07 12:25 51.23108 3.65316 24169 ft 413 kts 27°
2026-05-07 12:25 51.25676 3.67327 23633 ft 409 kts 23°
2026-05-07 12:25 51.28275 3.69153 23033 ft 407 kts 22°
2026-05-07 12:26 51.30878 3.70919 22470 ft 405 kts 22°
2026-05-07 12:26 51.33465 3.72664 21948 ft 403 kts 22°
2026-05-07 12:26 51.36037 3.74411 21423 ft 401 kts 22°
2026-05-07 12:26 51.38593 3.76163 20895 ft 399 kts 22°
2026-05-07 12:27 51.41135 3.77919 20387 ft 397 kts 22°
2026-05-07 12:27 51.43662 3.79673 19879 ft 395 kts 22°
2026-05-07 12:27 51.46177 3.81425 19377 ft 394 kts 22°
2026-05-07 12:27 51.48678 3.83172 18876 ft 390 kts 22°
2026-05-07 12:28 51.51147 3.84899 18378 ft 384 kts 22°
2026-05-07 12:28 51.53576 3.86601 17814 ft 378 kts 22°
2026-05-07 12:28 51.55965 3.88277 17304 ft 372 kts 22°
2026-05-07 12:28 51.58320 3.89930 16826 ft 367 kts 22°
2026-05-07 12:29 51.60646 3.91564 16342 ft 362 kts 22°
2026-05-07 12:29 51.62946 3.93182 15880 ft 361 kts 22°
2026-05-07 12:29 51.65244 3.94800 15422 ft 358 kts 23°
2026-05-07 12:29 51.67506 3.96394 14958 ft 352 kts 23°
2026-05-07 12:30 51.69735 3.97967 14506 ft 347 kts 22°
2026-05-07 12:30 51.71932 3.99519 14073 ft 342 kts 22°
2026-05-07 12:30 51.74100 4.01053 13605 ft 338 kts 22°
2026-05-07 12:30 51.76208 4.02545 13135 ft 333 kts 22°
2026-05-07 12:31 51.78343 4.04058 12697 ft 329 kts 23°
2026-05-07 12:31 51.80399 4.05516 12262 ft 325 kts 23°
2026-05-07 12:31 51.82455 4.06975 11837 ft 321 kts 23°
2026-05-07 12:31 51.84486 4.08419 11434 ft 317 kts 23°
2026-05-07 12:32 51.86491 4.09846 11027 ft 313 kts 23°
2026-05-07 12:32 51.88475 4.11259 10620 ft 310 kts 24°
2026-05-07 12:32 51.90441 4.12661 10228 ft 307 kts 24°
2026-05-07 12:32 51.92288 4.14346 9809 ft 304 kts 37°
2026-05-07 12:33 51.95513 4.18633 9007 ft 294 kts 40°
2026-05-07 12:33 51.97051 4.20733 8643 ft 285 kts 40°
2026-05-07 12:33 51.98554 4.22769 8277 ft 278 kts 40°
2026-05-07 12:34 52.00023 4.24744 7930 ft 272 kts 40°
2026-05-07 12:34 52.01479 4.26695 7596 ft 271 kts 40°
2026-05-07 12:34 52.02935 4.28639 7261 ft 270 kts 40°
2026-05-07 12:34 52.04385 4.30572 6924 ft 269 kts 40°
2026-05-07 12:35 52.05831 4.32496 6576 ft 268 kts 40°
2026-05-07 12:35 52.07269 4.34412 6219 ft 267 kts 40°
2026-05-07 12:35 52.08695 4.36312 5863 ft 264 kts 40°
2026-05-07 12:35 52.10114 4.38202 5516 ft 262 kts 40°
2026-05-07 12:36 52.11516 4.40071 5183 ft 259 kts 39°
2026-05-07 12:36 52.12901 4.41919 4863 ft 257 kts 40°
2026-05-07 12:36 52.14263 4.43736 4555 ft 252 kts 39°
2026-05-07 12:36 52.15577 4.45490 4236 ft 242 kts 39°
2026-05-07 12:37 52.16850 4.47192 3909 ft 234 kts 40°
2026-05-07 12:37 52.18088 4.48847 3608 ft 227 kts 40°
2026-05-07 12:37 52.19311 4.50484 3296 ft 226 kts 39°
2026-05-07 12:37 52.20502 4.52100 2994 ft 219 kts 43°
2026-05-07 12:38 52.21404 4.53988 2816 ft 204 kts 57°
2026-05-07 12:38 52.22127 4.55932 2543 ft 196 kts 58°
2026-05-07 12:38 52.22822 4.57787 2278 ft 187 kts 58°
2026-05-07 12:38 52.23491 4.59550 2017 ft 177 kts 57°
2026-05-07 12:39 52.24113 4.61183 1797 ft 163 kts 57°
2026-05-07 12:39 52.24699 4.62715 1577 ft 156 kts 56°
2026-05-07 12:39 52.25275 4.64222 1368 ft 157 kts 56°
2026-05-07 12:39 52.25844 4.65708 1197 ft 146 kts 56°
2026-05-07 12:40 52.26363 4.67067 948 ft 135 kts 54°
2026-05-07 12:40 52.26847 4.68331 776 ft 129 kts 56°
2026-05-07 12:40 52.27324 4.69589 606 ft 130 kts 56°
2026-05-07 12:40 52.27811 4.70844 415 ft 131 kts 58°
2026-05-07 12:41 52.28291 4.72088 230 ft 129 kts 60°
2026-05-07 12:41 52.28752 4.73312 67 ft 124 kts 59°
2026-05-07 12:41 52.29196 4.74467 -1 ft 111 kts 58°
2026-05-07 12:41 52.29560 4.75410 -3 ft 87 kts 57°
2026-05-07 12:42 52.29779 4.75803 -3 ft 33 kts 27°
2026-05-07 12:42 52.29904 4.75908 -2 ft 7 kts 27°
2026-05-07 12:42 52.29947 4.75944 -2 ft 7 kts 27°
2026-05-07 12:42 52.29990 4.75987 -2 ft 8 kts 44°
2026-05-07 12:43 52.30019 4.76059 -2 ft 7 kts 58°
2026-05-07 12:43 52.30045 4.76129 -2 ft 8 kts 58°
2026-05-07 12:43 52.30094 4.76255 -2 ft 18 kts 58°
2026-05-07 12:43 52.30167 4.76445 -2 ft 21 kts 58°
2026-05-07 12:44 52.30247 4.76655 -2 ft 22 kts 58°
2026-05-07 12:44 52.30326 4.76860 -2 ft 21 kts 58°
2026-05-07 12:44 52.30403 4.77059 -2 ft 21 kts 58°
2026-05-07 12:44 52.30494 4.77296 -2 ft 26 kts 57°
2026-05-07 12:45 52.30584 4.77524 -2 ft 20 kts 49°
2026-05-07 12:45 52.30703 4.77592 -2 ft 18 kts
2026-05-07 12:45 52.30816 4.77589 -2 ft 15 kts 329°
2026-05-07 12:45 52.30836 4.77432 -2 ft 14 kts 274°
2026-05-07 12:46 52.30841 4.77282 -2 ft 9 kts 272°
2026-05-07 12:46 52.30867 4.77236 -2 ft 6 kts
2026-05-07 12:46 52.30887 4.77237 -2 ft 1 kts
2026-05-07 12:46 52.30896 4.77238 -2 ft 1 kts
2026-05-07 12:47 52.30902 4.77239 -2 ft 0 kts